Location: Biharia
(46.4333°N, 22.8000°E)
Time: 23:36:23
(UTC+00:00)

Cosmos 2150 Rocket - Pass Details

Date: 16 October 2021
Orbit: 750 x 807 km, 74.0° (Epoch: 05 December)

Event Time Altitude Azimuth Distance (km) Brightness Sun altitude
Rises 16:32:29 0° 192° (SSW) 3,306 7.5 -9.7°
Reaches altitude 10° 16:34:54 10° 190° (S) 2,377 6.7 -10.2°
Maximum altitude 16:40:17 69° 108° (ESE) 856 4.0 -11.1°
Drops below altitude 10° 16:45:39 10° 26° (NNE) 2,368 6.3 -12.0°
Sets 16:48:02 0° 24° (NNE) 3,293 7.0 -12.4°
